Weather History for KSNT - April, 2013

Change the Weather History Date:

Thursday, April 18, 2013

  Actual Average Record
Temperature  
Mean Temperature 27 °F 34 °F  
Max Temperature 46 °F 48 °F 73 °F (1994)
Min Temperature 8 °F 20 °F 1 °F (1970)
Degree Days  
Heating Degree Days 38 31  
Month to date heating degree days 587 597  
Since 1 July heating degree days 8871 9315  
Cooling Degree Days 0 0  
Month to date cooling degree days 0 0  
Year to date cooling degree days 0 0  
Moisture  
Dew Point 11 °F    
Average Humidity 55    
Maximum Humidity 83    
Minimum Humidity 27    
Precipitation  
Precipitation 0.00 in 0.05 in 0.54 in (1965)
Month to date precipitation 1.38 1.03  
Year to date precipitation 4.21 6.15  
Sea Level Pressure  
Sea Level Pressure 30.25 in    
Wind  
Wind Speed 4 mph (North)    
Max Wind Speed 16 mph    
Max Gust Speed 23 mph    
T = Trace of Precipitation, MM = Missing Value Source: NWS Daily Summary

Daily Weather History Graph

Daily Weather History Graph

Search for Another Location

Airport or City:

Trip Planner

Search our weather history database for the weather conditions in past years. The results will help you decide how hot, cold, wet, or windy it might be!

Date:

Astronomy

Apr. 18, 2013 Rise Set
Actual Time 6:50 AM MDT 8:28 PM MDT
Civil Twilight 6:20 AM MDT 8:58 PM MDT
Nautical Twilight 5:43 AM MDT 9:35 PM MDT
Astronomical Twilight 5:03 AM MDT 10:15 PM MDT
Moon 1:04 PM MDT (4/18) 2:47 AM MDT (4/18)
Length of Visible Light 14h 38m
Length of Day
13h 37m
First Quarter, 52% of the Moon is Illuminated
Apr 18
First Quarter
Apr 25
Full
May 2
Last Quarter
May 9
New
May 17
First Quarter

Hourly Weather History & Observations

Time (MDT) Temp. Windchill Dew Point Humidity Pressure Visibility Wind Dir Wind Speed Gust Speed Precip Events Conditions
12:51 AM 16.0 °F - 8.1 °F 71% 30.26 in - Calm Calm - N/A   Unknown
1:51 AM 15.1 °F 9.4 °F 6.1 °F 68% 30.26 in - SE 3.5 mph - N/A   Unknown
2:51 AM 15.1 °F 9.4 °F 7.0 °F 70% 30.25 in - SSE 3.5 mph - N/A   Unknown
3:51 AM 12.0 °F - 5.0 °F 73% 30.27 in - Calm Calm - N/A   Unknown
4:51 AM 10.0 °F 3.6 °F 5.0 °F 80% 30.28 in - SE 3.5 mph - N/A   Unknown
5:51 AM 9.0 °F 0.6 °F 5.0 °F 84% 30.29 in - South 4.6 mph - N/A   Unknown
6:51 AM 9.0 °F 2.4 °F 5.0 °F 84% 30.31 in - South 3.5 mph - N/A   Unknown
7:51 AM 12.9 °F - 6.1 °F 74% 30.31 in - Calm Calm - N/A   Unknown
8:51 AM 18.0 °F - 8.1 °F 65% 30.31 in - Calm Calm - N/A   Unknown
9:51 AM 23.0 °F - 8.1 °F 53% 30.31 in - Calm Calm - N/A   Unknown
10:51 AM 28.9 °F 22.8 °F 9.0 °F 43% 30.28 in - North 5.8 mph - N/A   Unknown
11:51 AM 36.0 °F 30.3 °F 9.0 °F 33% 30.25 in - NNE 6.9 mph - N/A   Unknown
12:51 PM 37.0 °F 31.6 °F 10.0 °F 33% 30.26 in - NE 6.9 mph - N/A   Unknown
1:51 PM 39.9 °F 35.1 °F 10.9 °F 31% 30.22 in - Variable 6.9 mph - N/A   Unknown
2:51 PM 42.1 °F 37.7 °F 12.0 °F 29% 30.22 in - Variable 6.9 mph - N/A   Unknown
3:51 PM 45.0 °F 40.6 °F 14.0 °F 29% 30.21 in - North 8.1 mph - N/A   Unknown
4:51 PM 45.0 °F 40.1 °F 12.9 °F 27% 30.20 in - West 9.2 mph - N/A   Unknown
5:51 PM 46.0 °F 42.5 °F 15.1 °F 29% 30.19 in - NNW 6.9 mph - N/A   Unknown
6:51 PM 45.0 °F 40.6 °F 16.0 °F 31% 30.21 in - NW 8.1 mph - N/A   Unknown
7:51 PM 41.0 °F 38.0 °F 18.0 °F 40% 30.20 in - NW 4.6 mph - N/A   Unknown
8:51 PM 30.9 °F - 19.0 °F 61% 30.22 in - Calm Calm - N/A   Unknown
9:51 PM 28.9 °F - 19.9 °F 69% 30.24 in - Calm Calm - N/A   Unknown
10:51 PM 28.0 °F - 21.0 °F 75% 30.22 in - Calm Calm - N/A   Unknown
11:51 PM 28.0 °F 22.8 °F 21.0 °F 75% 30.20 in - SSW 4.6 mph - N/A   Unknown